FW8740 Weather Reports


Display with metric or nautical units.
time (UTC)temp
F
wind
direction
speed
MPH
gust
MPH
rain 1hr
in
rain 24hr
in
rain mn
in
humidity
%
barometer
mb
20260904193447 81 94 0.0 2.0 0.00 0.10 0.10 65 1014.5
20260904192942 82 109 0.0 2.0 0.00 0.10 0.10 66 1014.4
20260904192437 84 99 0.0 1.0 0.00 0.10 0.10 66 1014.3
20260904191934 83 111 0.0 1.0 0.00 0.10 0.10 67 1014.4
20260904191430 82 144 1.0 2.0 0.00 0.10 0.10 64 1014.4
20260904190927 82 128 1.0 2.0 0.00 0.10 0.10 64 1014.6
20260904190427 82 95 0.0 2.0 0.00 0.10 0.10 68 1014.7
20260904185923 83 136 2.0 3.0 0.00 0.10 0.10 63 1014.5
20260904185419 83 294 5.0 7.0 0.00 0.10 0.10 62 1014.7
20260904184919 83 80 3.0 5.0 0.00 0.10 0.10 63 1014.6
20260904184413 82 118 1.0 2.0 0.00 0.10 0.10 68 1014.8
20260904183909 83 116 2.0 3.0 0.00 0.10 0.10 66 1014.6
20260904183404 82 131 1.0 3.0 0.00 0.10 0.10 69 1014.6
20260904182859 84 166 1.0 2.0 0.00 0.10 0.10 66 1014.7
20260904182354 84 231 1.0 1.0 0.00 0.10 0.10 65 1014.8
20260904181849 82 328 2.0 3.0 0.00 0.10 0.10 63 1014.6
20260904181344 83 103 2.0 3.0 0.00 0.10 0.10 65 1014.9
20260904180839 84 114 1.0 2.0 0.00 0.10 0.10 62 1014.6
20260904180335 83 118 1.0 6.0 0.00 0.10 0.10 63 1014.4
20260904175834 82 214 1.0 5.0 0.00 0.10 0.10 65 1014.3
20260904175334 84 74 2.0 3.0 0.00 0.10 0.10 63 1014.4
20260904174832 82 125 1.0 2.0 0.00 0.10 0.10 65 1014.4
20260904174329 83 118 2.0 7.0 0.00 0.10 0.10 65 1014.6
20260904173825 82 301 2.0 5.0 0.00 0.10 0.10 65 1014.7
20260904173320 83 351 2.0 3.0 0.00 0.10 0.10 65 1014.6
20260904172816 82 107 1.0 2.0 0.00 0.10 0.10 69 1014.7
20260904172315 80 69 1.0 5.0 0.00 0.10 0.10 66 1014.4
20260904171810 81 55 3.0 5.0 0.00 0.10 0.10 65 1014.6
20260904171305 82 84 1.0 6.0 0.00 0.10 0.10 67 1014.7
20260904170801 82 55 1.0 5.0 0.00 0.10 0.10 67 1014.6
20260904170257 82 121 2.0 2.0 0.00 0.10 0.10 68 1014.5
20260904165755 80 118 2.0 2.0 0.00 0.10 0.10 70 1014.7
20260904165250 79 111 1.0 3.0 0.00 0.10 0.10 72 1014.6
20260904164744 80 109 1.0 3.0 0.00 0.10 0.10 71 1014.9
20260904164240 81 106 2.0 5.0 0.00 0.10 0.10 71 1014.7
20260904163736 80 79 1.0 2.0 0.00 0.10 0.10 72 1014.6
20260904163231 80 319 1.0 2.0 0.00 0.10 0.10 72 1014.8
20260904162730 79 86 1.0 2.0 0.00 0.10 0.10 74 1014.7
20260904162225 79 72 1.0 5.0 0.00 0.10 0.10 75 1014.7
20260904161721 78 91 0.0 2.0 0.00 0.10 0.10 76 1014.9
20260904161215 79 77 3.0 5.0 0.00 0.10 0.10 73 1014.8
20260904160711 82 44 3.0 6.0 0.00 0.10 0.10 70 1014.9
20260904160207 82 186 2.0 2.0 0.00 0.10 0.10 70 1014.6
20260904155707 82 62 2.0 5.0 0.00 0.10 0.10 68 1014.5
20260904155206 81 158 1.0 2.0 0.00 0.10 0.10 73 1014.7
20260904154704 80 3 1.0 3.0 0.00 0.10 0.10 71 1014.8
20260904154159 80 95 0.0 6.0 0.00 0.10 0.10 71 1014.8
20260904153654 80 112 2.0 8.0 0.00 0.10 0.10 73 1015.1
20260904153150 80 252 3.0 6.0 0.00 0.10 0.10 73 1015.0
20260904152646 80 7 2.0 5.0 0.00 0.10 0.10 74 1015.1
20260904152141 79 150 1.0 6.0 0.00 0.10 0.10 74 1015.0
20260904151636 79 137 2.0 5.0 0.00 0.10 0.10 76 1015.2
20260904151134 79 93 1.0 1.0 0.00 0.10 0.10 78 1015.1
20260904150630 79 64 2.0 5.0 0.00 0.10 0.10 78 1015.1
20260904150126 79 55 2.0 2.0 0.00 0.10 0.10 78 1015.2
20260904145624 78 128 0.0 2.0 0.00 0.10 0.10 80 1015.2
20260904145119 78 91 1.0 6.0 0.00 0.10 0.10 81 1015.3
20260904144615 78 181 1.0 2.0 0.00 0.10 0.10 83 1015.3
20260904144111 78 86 0.0 1.0 0.00 0.10 0.10 85 1015.2
20260904143607 77 77 2.0 3.0 0.00 0.10 0.10 84 1015.3
20260904143103 77 269 1.0 5.0 0.00 0.10 0.10 85 1015.2
20260904142559 77 83 1.0 3.0 0.00 0.10 0.10 87 1015.3
20260904142054 77 56 2.0 5.0 0.00 0.10 0.10 87 1015.1
20260904141549 77 126 1.0 1.0 0.00 0.10 0.10 91 1015.1
20260904141044 76 101 0.0 3.0 0.00 0.10 0.10 92 1015.2
20260904140540 76 21 1.0 2.0 0.00 0.10 0.10 93 1015.1
20260904140034 75 321 2.0 2.0 0.00 0.10 0.10 94 1015.0
20260904135533 75 66 1.0 5.0 0.00 0.10 0.10 94 1015.2
20260904135029 75 39 0.0 5.0 0.00 0.10 0.10 94 1015.0
20260904134525 75 55 2.0 3.0 0.00 0.10 0.10 95 1015.0
20260904134019 74 327 1.0 3.0 0.00 0.10 0.10 95 1015.0
20260904133513 74 57 1.0 3.0 0.00 0.10 0.10 96 1015.0
20260904133010 73 147 1.0 2.0 0.00 0.10 0.10 96 1014.9
20260904132504 73 147 0.0 2.0 0.00 0.10 0.10 96 1014.9
20260904132003 73 119 0.0 1.0 0.00 0.10 0.10 97 1015.0
20260904131458 73 112 1.0 1.0 0.00 0.10 0.10 97 1014.8
20260904130954 72 109 1.0 1.0 0.00 0.10 0.10 97 1014.9
20260904130453 72 90 0.0 1.0 0.00 0.10 0.10 97 1015.0
20260904125948 71 71 2.0 5.0 0.00 0.10 0.10 97 1014.8
20260904125444 71 145 0.0 1.0 0.00 0.10 0.10 98 1015.3
20260904124944 71 111 0.0 1.0 0.00 0.10 0.10 98 1015.0
20260904124440 70 112 0.0 1.0 0.00 0.10 0.10 98 1015.0
20260904123936 70 90 0.0 1.0 0.00 0.10 0.10 98 1015.1
20260904123430 70 102 0.0 2.0 0.00 0.10 0.10 98 1015.0
20260904122925 69 114 0.0 1.0 0.00 0.10 0.10 98 1015.0
20260904122420 69 102 1.0 2.0 0.00 0.10 0.10 98 1015.0
20260904121914 69 105 0.0 3.0 0.00 0.10 0.10 98 1015.0
20260904121411 69 97 0.0 1.0 0.00 0.10 0.10 98 1015.2
20260904120907 69 68 1.0 1.0 0.00 0.10 0.10 98 1015.2
20260904120402 69 60 1.0 2.0 0.00 0.10 0.10 98 1014.8
20260904115857 69 99 0.0 0.0 0.00 0.10 0.10 98 1014.9
20260904115352 69 106 0.0 0.0 0.00 0.10 0.10 98 1015.1
20260904114847 69 108 0.0 0.0 0.00 0.10 0.10 98 1015.0
20260904114342 69 105 0.0 0.0 0.00 0.10 0.10 98 1015.0
20260904113837 69 108 0.0 1.0 0.00 0.10 0.10 98 1014.8
20260904113336 68 109 0.0 0.0 0.00 0.10 0.10 98 1014.7
20260904112832 68 106 0.0 0.0 0.00 0.10 0.10 98 1014.6
20260904112327 68 104 0.0 0.0 0.00 0.10 0.10 97 1014.6
20260904111822 68 97 0.0 0.0 0.00 0.10 0.10 97 1014.8
20260904111318 68 101 0.0 0.0 0.00 0.10 0.10 97 1014.4
20260904110814 68 81 0.0 0.0 0.00 0.10 0.10 97 1014.4
20260904110312 68 98 0.0 0.0 0.00 0.10 0.10 97 1014.6
20260904105807 68 103 0.0 0.0 0.00 0.10 0.10 97 1014.6
20260904105305 68 91 0.0 0.0 0.00 0.10 0.10 97 1014.6
20260904104757 68 93 0.0 0.0 0.00 0.10 0.10 97 1014.6
20260904104253 68 103 0.0 0.0 0.00 0.10 0.10 97 1014.6
20260904103750 68 105 0.0 0.0 0.00 0.10 0.10 97 1014.4
20260904103249 68 105 0.0 0.0 0.00 0.10 0.10 97 1014.4
20260904102745 68 97 0.0 0.0 0.00 0.10 0.10 97 1014.3
20260904102240 68 102 0.0 0.0 0.00 0.10 0.10 97 1014.5
20260904101737 68 102 0.0 0.0 0.00 0.10 0.10 97 1014.3
20260904101233 69 101 0.0 0.0 0.00 0.10 0.10 97 1014.3
20260904100728 69 98 0.0 0.0 0.00 0.10 0.10 97 1014.2
20260904100224 69 74 0.0 0.0 0.00 0.10 0.10 97 1014.1
20260904095723 69 99 0.0 1.0 0.00 0.10 0.10 97 1014.2
20260904095218 69 99 0.0 1.0 0.00 0.10 0.10 97 1014.0
20260904094714 69 35 1.0 2.0 0.00 0.10 0.10 97 1014.0
20260904094214 69 87 0.0 0.0 0.00 0.10 0.10 97 1013.9
20260904093710 69 104 0.0 0.0 0.00 0.10 0.10 97 1013.9
20260904093209 69 105 0.0 0.0 0.00 0.10 0.10 97 1013.7
20260904092706 69 107 0.0 0.0 0.00 0.10 0.10 97 1013.8
20260904092202 70 107 0.0 0.0 0.00 0.10 0.10 97 1013.8
20260904091657 70 107 0.0 0.0 0.00 0.10 0.10 97 1013.7
20260904091152 70 107 0.0 0.0 0.00 0.10 0.10 97 1013.8
20260904090648 70 107 0.0 0.0 0.00 0.10 0.10 97 1013.8
20260904090143 70 106 0.0 0.0 0.00 0.10 0.10 97 1013.9
20260904085638 70 107 0.0 0.0 0.00 0.10 0.10 97 1013.8
20260904085138 70 106 0.0 0.0 0.00 0.10 0.10 97 1013.8
20260904084633 70 109 0.0 0.0 0.00 0.10 0.10 97 1013.7
20260904084129 70 114 0.0 0.0 0.00 0.10 0.10 97 1013.6
20260904083625 70 113 0.0 0.0 0.00 0.10 0.10 97 1013.7
20260904083121 71 124 0.0 0.0 0.00 0.10 0.10 97 1013.4
20260904082616 71 100 0.0 1.0 0.00 0.10 0.10 97 1013.7
20260904082112 71 80 1.0 1.0 0.00 0.10 0.10 97 1013.6
20260904081607 71 110 0.0 0.0 0.00 0.10 0.10 97 1013.5
20260904081102 71 149 1.0 1.0 0.00 0.10 0.10 97 1013.5
20260904080558 71 110 0.0 0.0 0.00 0.10 0.10 97 1013.5
20260904080054 71 105 0.0 0.0 0.00 0.10 0.10 97 1013.5
20260904075550 71 117 0.0 0.0 0.07 0.10 0.10 97 1013.7
20260904075049 72 108 0.0 2.0 0.00 0.09 0.09 97 1013.6
20260904074549 72 154 1.0 1.0 0.00 0.09 0.09 97 1014.0
20260904074044 72 106 0.0 0.0 0.00 0.09 0.09 97 1014.0
20260904073538 72 98 0.0 0.0 0.00 0.09 0.09 97 1013.9
20260904073035 72 104 0.0 0.0 0.00 0.09 0.09 97 1013.9
20260904072531 72 104 0.0 0.0 0.00 0.09 0.09 97 1013.8
20260904072026 72 97 0.0 0.0 0.00 0.09 0.09 97 1013.8
20260904071521 72 108 0.0 0.0 0.00 0.09 0.09 97 1013.8
20260904071016 72 101 0.0 0.0 0.00 0.09 0.09 97 1013.5
20260904070515 72 104 0.0 0.0 0.05 0.09 0.09 97 1013.2
20260904070010 72 106 0.0 0.0 0.05 0.09 0.09 97 1013.5
20260904065505 72 106 0.0 0.0 0.00 0.08 0.08 97 1013.5
20260904065001 73 107 0.0 0.0 0.00 0.08 0.08 97 1013.7
20260904064456 73 106 0.0 0.0 0.00 0.08 0.08 97 1014.0
20260904063951 73 108 0.0 0.0 0.00 0.08 0.08 97 1013.9
20260904063448 73 109 0.0 0.0 0.00 0.08 0.08 97 1014.2
20260904062942 73 114 0.0 0.0 0.00 0.08 0.08 97 1014.2
20260904062439 73 123 0.0 0.0 0.00 0.08 0.08 97 1014.5
20260904061934 73 112 0.0 0.0 0.00 0.08 0.08 97 1014.4
20260904061430 72 91 0.0 0.0 0.00 0.08 0.08 97 1014.4
20260904060926 72 116 0.0 0.0 0.00 0.08 0.08 97 1014.1
20260904060422 73 110 0.0 0.0 0.00 0.08 0.08 97 1014.5
20260904055917 73 109 0.0 0.0 0.00 0.08 0.08 97 1014.3
20260904055413 73 97 0.0 0.0 0.00 0.08 0.08 97 1014.5
20260904054908 73 126 0.0 0.0 0.00 0.08 0.08 96 1014.4
20260904054404 73 102 0.0 0.0 0.00 0.08 0.08 96 1014.4
20260904053859 73 106 0.0 0.0 0.00 0.08 0.08 96 1014.7
20260904053358 72 114 0.0 0.0 0.00 0.08 0.08 96 1014.8
20260904052854 72 98 0.0 1.0 0.00 0.08 0.08 96 1014.9
20260904052351 72 107 0.0 0.0 0.00 0.08 0.08 96 1014.7
20260904051847 72 119 0.0 1.0 0.00 0.08 0.08 96 1014.7
20260904051342 73 120 0.0 1.0 0.07 0.08 0.08 96 1014.8
20260904050837 72 101 0.0 0.0 0.31 0.08 0.08 96 1014.9
20260904050334 72 106 0.0 0.0 0.24 0.07 0.07 96 1014.9
20260904045833 72 95 0.0 1.0 0.00 0.03 0.03 96 1015.1
20260904045329 72 106 0.0 1.0 0.00 0.03 0.03 96 1014.7
20260904044828 73 115 0.0 0.0 0.12 0.03 0.03 96 1014.8
20260904044325 73 110 0.0 0.0 0.17 0.03 0.03 96 1015.0
20260904043821 73 101 0.0 0.0 0.00 0.00 0.00 96 1015.2
20260904043317 73 118 0.0 0.0 0.00 0.00 0.00 96 1015.1
20260904042812 73 113 0.0 0.0 0.00 0.00 0.00 96 1015.0
20260904042308 73 118 0.0 0.0 0.00 0.00 0.00 96 1015.2
20260904041808 73 119 0.0 0.0 0.00 0.00 0.00 96 1015.1
20260904041304 73 131 0.0 0.0 0.00 0.00 0.00 96 1015.3
20260904040800 73 145 1.0 1.0 0.00 0.00 0.00 96 1015.3
20260904040255 73 136 0.0 1.0 0.00 0.00 0.00 96 1015.2
20260904035751 73 128 0.0 0.0 0.00 0.19 0.19 96 1015.2
20260904035247 73 121 0.0 0.0 0.00 0.19 0.19 96 1015.4
20260904034745 73 108 0.0 0.0 0.00 0.19 0.19 96 1015.2
20260904034242 73 125 0.0 0.0 0.00 0.19 0.19 96 1015.3
20260904033737 73 122 0.0 1.0 0.00 0.19 0.19 96 1015.1
20260904033234 72 104 0.0 0.0 0.00 0.19 0.19 96 1015.2
20260904032730 72 134 0.0 0.0 0.00 0.19 0.19 96 1015.2
20260904032228 72 104 0.0 0.0 0.00 0.19 0.19 96 1015.2
20260904031723 72 108 0.0 0.0 0.00 0.19 0.19 95 1015.2
20260904031219 72 106 0.0 0.0 0.00 0.19 0.19 95 1015.2
20260904030714 72 110 0.0 0.0 0.00 0.19 0.19 95 1015.2
20260904030209 73 108 0.0 0.0 0.00 0.19 0.19 95 1015.2
20260904025706 73 109 0.0 0.0 0.00 0.19 0.19 95 1015.4
20260904025201 73 113 0.0 0.0 0.00 0.19 0.19 95 1015.5
20260904024656 73 122 0.0 0.0 0.00 0.19 0.19 95 1015.3
20260904024152 73 125 0.0 0.0 0.00 0.19 0.19 95 1015.9
20260904023648 73 129 0.0 0.0 0.00 0.19 0.19 95 1015.7
20260904023144 73 121 0.0 1.0 0.00 0.19 0.19 95 1015.8
20260904022643 73 108 0.0 0.0 0.00 0.19 0.19 95 1015.9
20260904022140 73 99 0.0 1.0 0.00 0.19 0.19 95 1016.0
20260904021636 73 111 0.0 0.0 0.00 0.19 0.19 95 1016.1
20260904021131 73 115 0.0 0.0 0.00 0.19 0.19 95 1016.2
20260904020627 73 98 0.0 0.0 0.00 0.19 0.19 95 1016.3
20260904020121 73 112 0.0 0.0 0.00 0.19 0.19 95 1016.2
20260904015615 73 101 0.0 1.0 0.00 0.19 0.19 95 1016.2
20260904015114 73 107 0.0 0.0 0.00 0.19 0.19 95 1016.3
20260904014608 73 106 0.0 0.0 0.00 0.19 0.19 95 1016.1
20260904014103 73 101 0.0 0.0 0.00 0.19 0.19 95 1016.1
20260904013600 73 110 0.0 0.0 0.00 0.19 0.19 95 1015.9
20260904013056 73 117 0.0 1.0 0.00 0.19 0.19 95 1016.1
20260904012556 73 108 0.0 0.0 0.00 0.19 0.19 95 1016.2
20260904012056 73 108 0.0 0.0 0.00 0.19 0.19 95 1016.4
20260904011555 73 107 0.0 0.0 0.00 0.19 0.19 95 1016.3
20260904011051 73 106 0.0 0.0 0.00 0.19 0.19 95 1016.1
20260904010547 73 106 0.0 0.0 0.00 0.19 0.19 95 1016.3
20260904010043 73 106 0.0 0.0 0.00 0.19 0.19 95 1016.0
20260904005543 73 112 0.0 0.0 0.00 0.19 0.19 94 1016.0
20260904005038 73 114 0.0 0.0 0.00 0.19 0.19 94 1016.1
20260904004533 73 108 0.0 0.0 0.00 0.19 0.19 94 1016.3
20260904004028 74 106 0.0 1.0 0.00 0.19 0.19 94 1016.1
20260904003524 74 108 0.0 0.0 0.00 0.19 0.19 94 1016.1
20260904003020 74 107 0.0 0.0 0.00 0.19 0.19 94 1016.0
20260904002516 74 110 0.0 0.0 0.00 0.19 0.19 94 1015.8
20260904002015 74 109 0.0 0.0 0.00 0.19 0.19 94 1015.8
20260904001511 75 108 0.0 0.0 0.00 0.19 0.19 94 1015.9
20260904001010 75 111 0.0 0.0 0.00 0.19 0.19 94 1015.7
20260904000509 75 111 0.0 0.0 0.00 0.19 0.19 94 1015.7
20260904000005 75 111 0.0 0.0 0.00 0.19 0.19 94 1015.8
20260903235500 75 120 0.0 0.0 0.00 0.19 0.19 94 1015.7
20260903234955 75 109 0.0 0.0 0.00 0.19 0.19 93 1015.7
20260903234451 75 108 0.0 0.0 0.00 0.19 0.19 93 1015.5
20260903233947 76 106 0.0 0.0 0.00 0.19 0.19 93 1015.6
20260903233443 76 108 0.0 0.0 0.00 0.19 0.19 93 1015.4
20260903232937 76 112 0.0 0.0 0.00 0.19 0.19 92 1015.1
20260903232433 76 113 0.0 0.0 0.00 0.19 0.19 92 1015.4
20260903231932 77 116 0.0 0.0 0.00 0.19 0.19 92 1015.2
20260903231427 77 113 0.0 0.0 0.00 0.19 0.19 91 1015.3
20260903230922 77 127 1.0 1.0 0.00 0.19 0.19 91 1015.4
20260903230418 78 119 0.0 1.0 0.00 0.19 0.19 90 1015.5
20260903225914 78 119 0.0 1.0 0.00 0.19 0.19 88 1015.5
20260903225409 79 122 1.0 1.0 0.00 0.19 0.19 88 1015.7
20260903224906 79 119 0.0 0.0 0.00 0.19 0.19 87 1015.6
20260903224401 80 116 0.0 0.0 0.00 0.19 0.19 86 1015.6
20260903223857 80 116 0.0 0.0 0.00 0.19 0.19 85 1015.7
20260903223356 81 116 0.0 0.0 0.00 0.19 0.19 83 1015.8
20260903222851 82 117 0.0 0.0 0.00 0.19 0.19 81 1015.7
20260903222350 82 113 0.0 0.0 0.00 0.19 0.19 80 1015.6
20260903221845 82 113 0.0 0.0 0.00 0.19 0.19 80 1015.9
20260903221344 83 110 0.0 0.0 0.00 0.19 0.19 79 1015.9
20260903220842 83 110 0.0 0.0 0.00 0.19 0.19 80 1015.8
20260903220336 83 107 0.0 0.0 0.00 0.19 0.19 79 1015.6
20260903215834 83 112 0.0 1.0 0.00 0.19 0.19 78 1015.7
20260903215331 84 113 0.0 0.0 0.00 0.19 0.19 76 1015.6
20260903214829 84 97 0.0 1.0 0.00 0.19 0.19 76 1015.7
20260903214326 84 124 0.0 1.0 0.00 0.19 0.19 75 1015.6
20260903213820 84 80 1.0 1.0 0.00 0.19 0.19 74 1015.7
20260903213315 84 98 1.0 1.0 0.00 0.19 0.19 75 1015.6
20260903212811 84 110 0.0 0.0 0.00 0.19 0.19 77 1015.7
20260903212308 84 69 0.0 0.0 0.00 0.19 0.19 77 1015.6
20260903211806 84 113 0.0 0.0 0.00 0.19 0.19 78 1015.3
20260903211303 84 96 0.0 2.0 0.00 0.19 0.19 75 1015.5
20260903210758 84 98 1.0 1.0 0.00 0.19 0.19 74 1015.6
20260903210254 85 353 2.0 3.0 0.00 0.19 0.19 74 1015.6
20260903205748 86 102 1.0 2.0 0.00 0.19 0.19 72 1015.7
20260903205248 85 104 1.0 2.0 0.00 0.19 0.19 74 1015.7
20260903204743 85 106 0.0 0.0 0.00 0.19 0.19 76 1015.5
20260903204239 85 124 0.0 1.0 0.00 0.19 0.19 76 1015.7
20260903203734 86 152 1.0 1.0 0.00 0.19 0.19 73 1015.9
20260903203230 86 102 0.0 1.0 0.00 0.19 0.19 74 1015.5
20260903202723 84 101 0.0 1.0 0.00 0.19 0.19 74 1015.6
20260903202220 84 86 1.0 2.0 0.00 0.19 0.19 74 1015.8
20260903201719 85 111 1.0 2.0 0.00 0.19 0.19 75 1015.8
20260903201215 84 105 2.0 3.0 0.00 0.19 0.19 76 1015.7
20260903200714 85 35 1.0 2.0 0.00 0.19 0.19 76 1015.6
20260903200209 86 70 2.0 2.0 0.00 0.19 0.19 74 1015.6
20260903195705 84 132 1.0 2.0 0.00 0.19 0.19 75 1015.6
20260903195201 84 90 1.0 1.0 0.00 0.19 0.19 76 1015.9
20260903194700 83 118 2.0 2.0 0.00 0.19 0.19 78 1015.6
20260903194156 83 114 0.0 0.0 0.00 0.19 0.19 78 1015.7
20260903193651 83 117 0.0 2.0 0.00 0.19 0.19 79 1015.9